Regional Weather Roundup
Issued by NWS Wakefield, VA

Home | Current Version | Previous Version | Text Only | Print | Product List | Glossary Off
Versions: 1 2 3 4 5 6 7 8 9 10 11 12 13 14 15 16 17 18 19 20 21 22 23 24 25 26 27 28 29 30 31 32 33 34 35 36 37 38 39 40 41 42 43 44 45 46 47 48 49 50

000
ASUS41 KAKQ 281314
RWRAKQ

REGIONAL WEATHER ROUNDUP
NATIONAL WEATHER SERVICE WAKEFIELD VA
900 AM EDT TUE JUL 28 2015

Note: "fair" indicates few or no clouds below 12,000 feet with no
significant weather and/or obstructions to visibility. * = Denotes
station may not report precipitation (e.g., rain,snow,etc.),
thunder or fog.

VAZ042-051-052>054-056-281400-
NORTHERN VIRGINIA

CITY           SKY/WX    TMP DP  RH WIND       PRES   REMARKS
WASH NATIONAL  MOSUNNY   82  73  74 CALM      30.02R
DULLES         SUNNY     78  72  81 W3        30.03R
FORT BELVOIR   SUNNY     78  72  82 SE3       30.01S
QUANTICO       SUNNY     78  71  79 CALM      30.02S
FREDERICKSBRG* SUNNY     78  75  90 CALM      30.01S
STAFFORD*      SUNNY     77  70  79 CALM      30.06S
WARRENTON      PTSUNNY   76  74  94 NW3       30.03S
CULPEPER*      FOG       72  71  99 N3        30.04R VSB 1/4
MANASSAS*      SUNNY     75  73  94 S3        30.03R
LEESBURG*      PTSUNNY   79  75  89 N7        30.04R
WINCHESTER     CLOUDY    77  72  83 CALM      30.05S FOG
FRONT ROYAL*   CLOUDY    70  70 100 CALM      30.05R VSB 3/4
LURAY*         FOG       72  72 100 CALM      30.06S VSB 3/4
$$

VAZ048-049-060>072-079>083-281400-
CENTRAL AND SOUTH CENTRAL VIRGINIA

CITY           SKY/WX    TMP DP  RH WIND       PRES   REMARKS
RICHMOND       MOSUNNY   78  72  81 CALM      30.01F
CHESTERFIELD*  FAIR      81  64  57 CALM      30.03S
PETERSBURG*    SUNNY     80  77  91 CALM      30.02S
HANOVER        SUNNY     78  74  87 CALM      30.03S
TAPPAHANNOCK*  MOSUNNY   78  72  81 CALM      30.02F
QUINTON*       FAIR      75  73  92 CALM      30.01S
CHARLOTTSVILLE CLOUDY    72  71  97 CALM      30.04R FOG
GORDONSVILLE*  PTSUNNY   75  72  88 CALM      30.03R
ORANGE*        SUNNY     77  72  83 CALM      30.04R
LOUISA*        FOG       73  72  94 CALM      30.02S VSB 1/2
BUMPASS*       CLOUDY    73  72  98 CALM      30.02F VSB 1/2
FARMVILLE*     MOSUNNY   77  77 100 CALM      30.01S
CREWE*         FAIR     N/A N/A N/A SW3       30.02S
FORT PICKETT*  FAIR      78  73  84 S3        30.02S
CHASE CITY*    FAIR      82  76  84 W5        30.02S
CLARKSVILLE*   FAIR      79  72  78 CALM      30.02S
SOUTH HILL*    PTSUNNY   79  74  83 SW5       30.08S
LAWRENCEVILLE* FAIR      79  73  83 S5        30.02S
EMPORIA*       SUNNY     77  72  83 S3        30.03S
$$

VAZ088>098-281400-
SOUTHEAST VIRGINIA

CITY           SKY/WX    TMP DP  RH WIND       PRES   REMARKS
NORFOLK        PTSUNNY   81  72  74 S6        30.02F
VIRGINIA BEACH PTSUNNY   83  73  72 S6        30.02S
NORFOLK NAVAL  PTSUNNY   79  72  79 CALM      30.03F
WEST POINT*    MOSUNNY   81  73  75 CALM      30.03S
SALUDA*        CLOUDY    78  73  86 S3        30.01F
NEWPORT NEWS   CLOUDY    79  73  82 SW5       30.02S
LANGLEY AFB    MOSUNNY   80  73  78 S5        30.02S
FORT EUSTIS    PTSUNNY   78  78 100 S3        30.00S
WILLIAMSBURG*  SUNNY     81  73  78 CALM      30.03S
HR EXEC AP*    PTSUNNY   79  72  78 SE3       30.04F
FRANKLIN*      SUNNY     79  73  79 S3        30.03S
WAKEFIELD      SUNNY     80  72  76 SW5       30.02S
$$

VAZ020-022-025-037-045-281400-
WEST CENTRAL AND SOUTHWEST VIRGINIA

CITY           SKY/WX    TMP DP  RH WIND       PRES   REMARKS
STAUNTON*      CLOUDY    72  71  96 CALM      30.09R
WAYNESBORO*    CLOUDY    69  69 100 CALM      30.09R VSB 1/2
HOT SPRINGS VA MOSUNNY   72  69  89 W3        30.17S
LYNCHBURG      CLOUDY    75  72  90 CALM      30.06R
DANVILLE       SUNNY     78  73  84 VRB3      30.03R
SOUTH BOSTON*  FAIR      78  74  86 CALM      30.02S
MARTINSVILLE   SUNNY     77  74  90 NW3       30.07R
ROANOKE        CLOUDY    75  70  84 E5        30.07R
BLACKSBURG     CLOUDY    72  71  98 CALM      30.14R FOG
DUBLIN*        FOG       70  70 100 CALM      30.12S VSB<1/4
MARION*        SUNNY     71  68  90 SW3       30.15S
HILLSVILLE*    MOSUNNY   70  68  93 CALM      30.12S
RICHLANDS*     FAIR      72  70  94 CALM      30.12S
WISE*          SUNNY     75  73  94 SW3       30.13F
ABINGDON*      MOSUNNY   76  70  80 CALM      30.10S
$$

MDZ021>025-VAZ099-100-281400-
SOUTHERN MARYLAND AND THE DELMARVA PENINSULA

CITY           SKY/WX    TMP DP  RH WIND       PRES   REMARKS
PATUXENT RIVER MOSUNNY   79  72  79 SW7       30.01S
BAY BRIDGE APT   N/A     79  70  73 CALM      30.02S
LEONARDTOWN    SUNNY     77  70  78 CALM      30.04R
DOVER          MOSUNNY   78  78 100 VRB5      30.01S
GEORGETOWN     SUNNY     80  72  76 CALM      30.03S
EASTON         SUNNY     82  73  74 CALM      30.05S
CAMBRIDGE      SUNNY     79  72  78 CALM      30.01S
SALISBURY      MOSUNNY   79  73  82 CALM      30.02S
OCEAN CITY     PTSUNNY   80  73  79 W3        30.02S
WALLOPS ISLAND PTSUNNY   81  75  82 S7        30.02F
ACCOMACK*      PTSUNNY  N/A N/A N/A S5        30.02S
$$

NCZ012>017-030>032-281400-
NORTH CENTRAL AND EASTERN NORTH CAROLINA

CITY           SKY/WX    TMP DP  RH WIND       PRES   REMARKS
ROANOKE RAPIDS FAIR      79  72  78 S3        30.03R
RALEIGH        MOSUNNY   79  72  79 S3        30.03R
ELIZABETH CITY MOSUNNY   80  73  79 E5        30.03S
AHOSKIE*       SUNNY     78  72  82 CALM      30.03R
EDENTON*         N/A     80  70  72 S6        30.03S
CURRITUCK*     PTSUNNY   80  70  69 CALM      30.04S
KILL DEVIL HLS SUNNY     83  70  66 E8        30.02F
MANTEO         SUNNY     81  69  67 E8        30.03F
CAPE HATTERAS  SUNNY     82  69  64 E8        30.02S
TARBORO*         N/A     79  73  79 SE5       30.03S
GOLDSBORO      SUNNY     80  73  78 SE5       30.00F
WASHINGTON     SUNNY     78  73  83 E5        30.02F
GREENVILLE     SUNNY     81  73  78 S3        30.04S
NEW BERN       SUNNY     81  71  71 E6        30.02F
WILMINGTON     SUNNY     81  73  76 NE10      30.00S
$$

VAZ048-281400-
ELSEWHERE

CITY           SKY/WX    TMP DP  RH WIND       PRES   REMARKS
HARRISBURG PA  FOG       74  71  91 CALM      30.03S VSB 1
BALTIMORE      CLOUDY    77  74  90 NE5       30.02S FOG
ANNAPOLIS      SUNNY     81  71  71 CALM      30.01S
ANDREWS AFB    SUNNY     77  72  83 NE2       30.02R
PHILADELPHIA   MOSUNNY   80  73  79 S5        30.02S
HENDERSON NC   SUNNY     78  71  77 S6        30.03S
GREENSBORO     MOSUNNY   78  72  81 S5        30.04R
ROCKY MOUNT    SUNNY     80  73  79 S6        30.03S
$$

VAZ100-281400-
MARINE

STATION/POSITION TIME  TEMP    WIND        PRES    WAVE   SWELL
                       AIR SEA DIR/SP/G            HT/PER HT/PER
                 (UTC) (F)     (DEG/KT/KT) (MB)    (FT/S) (FT/S)
BRANDYWINE LGT   1200   77 75  250/  1/  2 1016.8R
CAPE MAY NJ      1200   78 78  230/  1/  1 1016.2R
LEWES DE         1200   75 73   90/  2/  2 1016.4R
15NM E FENWICK I 1250   78 78  220/  6/  6 1016.9R   2/11   2/11
OCEAN-CITY-INLET 1200   76 74  200/  3/  3 1015.8R
WACHAPREAGUE VA  1200   81 81  230/  3/  5 1016.8R
GOOSES REEF MD   1300   79 81  240/  2/  2 1017.4R
COVE POINT MD    1200   77     220/  4/  5 1016.8S
SOLOMONS ISLAND  1200      82                N/A
BISHOPS HEAD MD  1200   80 79  200/  4/  5 1015.4S
POTOMAC MD       1300   79 82  230/  6/  6 1015.3S   1
CAMBRIDGE MD     1200   78 83  110/  2/  3 1015.5R
LEWISETTA VA     1200   78 82  210/  4/  6 1015.9R
RAPPAHANNOCK LGT 1200          190/  7/  9 1017.1R
STINGRAY PT      1300   80 82  230/  6/  8 1016.6S   1/ 2
YORK RVR RNG VA  1200   78     180/  7/  8 1015.9R
YORKTOWN VA      1200   77 83  210/  2/  6 1016.2R
JAMESTOWN VA     1300   77 84   CALM  /  2   N/A
DOMINION TERM VA 1200   77     180/  5/  5 1016.4R
KIPTOPEKE VA     1200      85  210/  5/  7   N/A
CHES BAY BRIDGE  1200   78 80  170/  6/  8 1016.4R
CAPE HENRY VA    1200   77     170/  5/  6   N/A
CHESAPEAKE LGHT  1200   80     190/  6/  7 1017.8R
WILLOUBY STN VA  1200   78     150/  3/  5 1017.5R
CAPE HENRY BUOY  1228      80                N/A     2/11
1ST LANDING BUOY 1300      80              1016.3F   1/ 4
CAPE CHARLES BUO 1226      79                N/A     2/11   2/11
OFFSHORE WE BUOY 1211      80                N/A     3/11   3/11
64NM E OF VA BCH 1250   80 80  170/  2/  4 1016.9R   2/11   2/11
DUCK PIER NC     1200   80 68  130/  5/  5 1016.2R
44100 DUCK FRF   1224      80                N/A     2/11   2/11
44056 DUCK FRF   1211      79                N/A     2/11   2/11
OREGON INLET NC  1200   80 81   90/  5/  6 1016.9R
HATTERAS NC      1200   80 82   60/  7/  9 1016.3R
CAPE LOOKOUT NC  1300   81      70/ 13/ 15 1016.0R
$$



USA.gov is the U.S. government's official web portal to all federal, state and local government web resources and services.